WS Maaseik 1 Meer informatie WS Maaseik 1


WS Maaseik 2 Meer informatie WS Maaseik 2


Regen radar Meer informatie rain snow radar


Bezoek onze andere website:

Vorige versie
weerstation Maaseik


Bezoek ook eens deze sites:

Weerstation Geleen



Het weer levert geen direct gevaar op.    Er zijn geen waarschuwingen afgegeven.

15 daagse weersverwachting Bad Ischl (AT)

  • Overzicht
  • Per uur
  • 15 dagen
  • Extra
  • Vergelijk
  • Kaarten
  • Dagkaart
  • Meer »
  • Info
  • Statistieken
  • Directe link
    Temp 6h Neerslag Wind  
 05:50     20:34    Daglengte: 14:44 Vandaag
14:00
14°
17.2 mm
2
20:00
15°
5.6 mm
1
 05:51     20:32    Daglengte: 14:41 Morgen
02:00
13°
 
1
08:00
14°
 
1
14:00
18°
6.9 mm
2
20:00
17°
 
1
 05:52     20:31    Daglengte: 14:39 Zaterdag 07 Aug
02:00
12°
 
1
08:00
14°
 
1
14:00
25°
11.3 mm
2
20:00
22°
46.7 mm
3
 05:54     20:29    Daglengte: 14:35 Zondag 08 Aug
02:00
15°
19.3 mm
3
08:00
14°
72.4 mm
0
Locatie info
Region: Oberösterreich
Latitude: 47.7120°N
Longitude: 13.6257°E
470 masl
Postcode: 4820
Temp/Neerslag /Baro Onweer/Dauwpunt
    Temp Baro 1h Neerslag Dauwpunt Wind UV Bewolking  
 05:50     20:34    Daglengte: 14:44 Vandaag
13:00
14°
1011.2 hPa 11.6 mm
49%
13.5°
2
Windvlaag: -2.2 m/s
86%
14:00
14°
1010.7 hPa 5.6 mm
82%
13.6°
2
Windvlaag: -2.2 m/s
78%
15:00
14°
1010.6 hPa 5.6 mm
81%
13.5°
2
Windvlaag: -2.2 m/s
68%
16:00
15°
1010.1 hPa
79%
13.9°
1
Windvlaag: -2.3 m/s
26%
17:00
17°
1009.6 hPa
30%
13.5°
1
Windvlaag: -2.7 m/s
22%
18:00
17°
1009.4 hPa
26%
11.2°
1
Windvlaag: -2.4 m/s
14%
19:00
16°
1009.4 hPa
19%
10.6°
2
Windvlaag: -1.9 m/s
13%
20:00
15°
1009.9 hPa
17%
11.0°
1
Windvlaag: -1.5 m/s
24%
21:00
14°
1010.2 hPa
17%
12.7°
1
Windvlaag: -0.1 m/s
42%
22:00
13°
1010.6 hPa
18%
12.6°
1
Windvlaag: 1.2 m/s
50%
23:00
13°
1010.8 hPa
25%
12.2°
1
Windvlaag: 1.4 m/s
56%
 05:51     20:32    Daglengte: 14:41 Morgen
00:00
13°
1010.5 hPa
26%
11.7°
1
Windvlaag: 1.2 m/s
21%
01:00
13°
1010.2 hPa
20%
11.0°
1
Windvlaag: 1.8 m/s
21%
02:00
13°
1010.1 hPa
31%
10.6°
1
Windvlaag: 1.9 m/s
40%
03:00
13°
1010.2 hPa
37%
10.6°
1
Windvlaag: 2 m/s
27%
04:00
13°
1010.0 hPa
24%
10.3°
1
Windvlaag: 1.7 m/s
26%
05:00
13°
1009.7 hPa
16%
9.8°
1
Windvlaag: 2.1 m/s
15%
06:00
13°
1009.8 hPa
16%
9.8°
1
Windvlaag: 1.8 m/s
21%
07:00
13°
1010.0 hPa
18%
9.8°
1
Windvlaag: 1.4 m/s
14%
08:00
14°
1010.1 hPa
15%
9.7°
1
Windvlaag: 1.7 m/s
41%
09:00
16°
1010.1 hPa
15%
9.5°
1
Windvlaag: 0.2 m/s
72%
10:00
16°
1010.3 hPa
19%
8.9°
1
Windvlaag: -0.5 m/s
79%
11:00
17°
1010.2 hPa
64%
8.1°
1
Windvlaag: -0.2 m/s
85%
12:00
18°
1010.3 hPa
77%
7.2°
1
Windvlaag: -2.2 m/s
71%
13:00
17°
1010.6 hPa 6.9 mm
82%
6.7°
1
Windvlaag: -2.5 m/s
47%
14:00
18°
1010.7 hPa
82%
14.2°
2
Windvlaag: -3.8 m/s
52%
15:00
18°
1010.5 hPa
68%
15.5°
2
Windvlaag: -3.1 m/s
11%
16:00
18°
1010.2 hPa
15%
16.3°
2
Windvlaag: -2.8 m/s
21%
17:00
19°
1010.4 hPa
66%
15.9°
2
Windvlaag: -3 m/s
28%
18:00
18°
1010.5 hPa
30%
14.9°
2
Windvlaag: -2.7 m/s
10%
19:00
18°
1010.7 hPa
28%
14.4°
1
Windvlaag: -1.6 m/s
11%
20:00
17°
1011.1 hPa
15%
13.9°
1
Windvlaag: -0.6 m/s
2%
21:00
15°
1012.0 hPa
22%
14.0°
1
Windvlaag: 0.2 m/s
5%
22:00
14°
1012.3 hPa
17%
13.0°
1
Windvlaag: 1.2 m/s
37%
23:00
13°
1012.6 hPa
14%
12.6°
1
Windvlaag: 2.1 m/s
55%
 05:52     20:31    Daglengte: 14:39 Zaterdag 07 Aug
00:00
13°
1012.6 hPa
14%
12.0°
1
Windvlaag: 1.8 m/s
44%
01:00
13°
1012.6 hPa
14%
11.5°
1
Windvlaag: 1.7 m/s
33%
02:00
12°
1012.5 hPa
14%
10.8°
1
Windvlaag: 1.5 m/s
14%
03:00
12°
1012.2 hPa
14%
10.8°
1
Windvlaag: 1.3 m/s
5%
04:00
11°
1012.1 hPa
14%
10.6°
1
Windvlaag: 1.2 m/s
10%
05:00
11°
1011.5 hPa
21%
7.9°
1
Windvlaag: 1 m/s
52%
06:00
11°
1011.4 hPa
21%
7.7°
1
Windvlaag: 1.1 m/s
40%
07:00
12°
1011.3 hPa
21%
8.4°
1
Windvlaag: 1.3 m/s
30%
08:00
14°
1011.0 hPa
21%
9.8°
1
Windvlaag: 1.2 m/s
15%
09:00
17°
1010.5 hPa
21%
10.8°
1
Windvlaag: 2.1 m/s
29%
10:00
19°
1009.7 hPa
21%
11.4°
1
Windvlaag: 2.4 m/s
27%
11:00
21°
1009.0 hPa
21%
11.9°
1
Windvlaag: 2.2 m/s
12%
12:00
23°
1008.1 hPa
21%
12.2°
1
Windvlaag: 1.7 m/s
26%
13:00
25°
1007.2 hPa
21%
12.4°
1
Windvlaag: 3.4 m/s
22%
14:00
25°
1006.2 hPa 11.3 mm
21%
13.4°
2
Windvlaag: 3.3 m/s
28%
15:00
26°
1005.3 hPa 11.7 mm
21%
14.0°
3
Windvlaag: 3.5 m/s
24%
16:00
26°
1004.4 hPa 11.7 mm
21%
14.1°
3
Windvlaag: 4 m/s
30%
17:00
26°
1003.6 hPa 11.7 mm
21%
14.1°
3
Windvlaag: 7.4 m/s
24%
18:00
25°
1002.8 hPa 11.6 mm
21%
14.8°
3
Windvlaag: 7.8 m/s
39%
19:00
24°
1002.4 hPa
21%
15.1°
3
Windvlaag: 7.8 m/s
14%
20:00
22°
1002.5 hPa
21%
13.5°
3
Windvlaag: 8.7 m/s
17%
21:00
20°
1004.1 hPa
21%
18.7°
3
Windvlaag: 8.9 m/s
87%
22:00
19°
1004.4 hPa
21%
17.9°
3
Windvlaag: 8.4 m/s
87%
23:00
18°
1004.7 hPa
21%
16.7°
2
Windvlaag: 8.1 m/s
92%
 05:54     20:29    Daglengte: 14:35 Zondag 08 Aug
00:00
17°
1007.2 hPa
21%
16.2°
2
Windvlaag: -3.4 m/s
87%
01:00
17°
1009.2 hPa 11.5 mm
36%
15.8°
4
Windvlaag: -5.1 m/s
91%
02:00
15°
1011.6 hPa 7.8 mm
98%
14.4°
3
Windvlaag: -3.9 m/s
100%
03:00
14°
1011.9 hPa 12.1 mm
97%
13.8°
1
Windvlaag: 2.9 m/s
94%
04:00
14°
1012.0 hPa 12.0 mm
92%
13.2°
1
Windvlaag: 3.3 m/s
100%
05:00
14°
1012.4 hPa
91%
12.9°
1
Windvlaag: 5.2 m/s
100%
06:00
14°
1013.0 hPa 12.1 mm
99%
12.2°
1
Windvlaag: 3.8 m/s
100%
07:00
13°
1013.8 hPa 12.3 mm
100%
11.4°
1
Windvlaag: 3 m/s
91%
08:00
14°
1014.2 hPa
92%
11.2°
0
Windvlaag: 3.9 m/s
100%
09:00
14°
1015.8 hPa
24%
-37.5°
1
Windvlaag: 0 m/s
100%
Temp/Neerslag /Baro Onweer/Dauwpunt
    Temp Baro Neerslag Dauwpunt Wind Bewolking  
 05:50     20:34    Daglengte: 14:44 Vandaag
14:00
14°
1010.7 hPa 17.2 mm 13.6°
2
78%
17:00
17°
1009.6 hPa 5.6 mm 13.5°
1
22%
20:00
15°
1009.9 hPa   11.0°
1
24%
23:00
13°
1010.8 hPa   12.2°
1
56%
 05:51     20:32    Daglengte: 14:41 Morgen
02:00
13°
1010.1 hPa   10.6°
1
40%
05:00
13°
1009.7 hPa   9.8°
1
15%
08:00
14°
1010.1 hPa   9.7°
1
41%
11:00
17°
1010.2 hPa   8.1°
1
85%
14:00
18°
1010.7 hPa 6.9 mm 14.2°
2
52%
17:00
19°
1010.4 hPa   15.9°
2
28%
20:00
17°
1011.1 hPa   13.9°
1
2%
23:00
13°
1012.6 hPa   12.6°
1
55%
 05:52     20:31    Daglengte: 14:39 Zaterdag 07 Aug
02:00
12°
1012.5 hPa   10.8°
1
14%
05:00
11°
1011.5 hPa   7.9°
1
52%
08:00
14°
1011.0 hPa   9.8°
1
15%
11:00
21°
1009.0 hPa   11.9°
1
12%
14:00
25°
1006.2 hPa 11.3 mm 13.4°
2
28%
17:00
26°
1003.6 hPa 35.1 mm 14.1°
3
24%
20:00
22°
1002.5 hPa 11.6 mm 13.5°
3
17%
23:00
18°
1004.7 hPa   16.7°
2
92%
 05:54     20:29    Daglengte: 14:35 Zondag 08 Aug
02:00
15°
1011.6 hPa 19.3 mm 14.4°
3
100%
05:00
14°
1012.4 hPa 24.1 mm 12.9°
1
100%
08:00
14°
1014.2 hPa 36.3 mm 11.2°
0
100%
11:00
15°
1015.8 hPa   14.2°
0
79%
14:00
18°
1015.1 hPa   16.5°
1
48%
17:00
17°
1016.4 hPa 23.1 mm 15.5°
2
1%
20:00
14°
1021.8 hPa 26.0 mm 13.2°
2
1%
23:00
12°
1023.3 hPa 28.3 mm 11.6°
2
1%
 05:55     20:27    Daglengte: 14:32 Maandag 09 Aug
02:00
10°
1023.3 hPa 28.3 mm 9.1°
2
1%
05:00
10°
1023.1 hPa 28.3 mm 8.5°
2
0%
08:00
14°
1022.2 hPa 28.3 mm 11.2°
1
1%
11:00
18°
1022.2 hPa 28.3 mm 11.1°
1
1%
14:00
20°
1021.6 hPa 28.3 mm 11.8°
2
1%
17:00
20°
1021.8 hPa 28.3 mm 12.4°
2
1%
20:00
15°
1024.3 hPa 29.2 mm 14.2°
1
1%
23:00
13°
1025.5 hPa 29.3 mm 12.3°
2
1%
 05:56     20:26    Daglengte: 14:30 Dinsdag 10 Aug
02:00
11°
1026.4 hPa 29.3 mm 10.3°
2
1%
05:00
12°
1026.0 hPa 29.3 mm 10.1°
2
1%
08:00
15°
1025.5 hPa 29.3 mm 12.6°
1
1%
11:00
22°
1024.2 hPa 29.3 mm 11.3°
1
0%
14:00
24°
1022.6 hPa 29.3 mm 10.7°
2
0%
17:00
23°
1021.9 hPa 29.3 mm 12.4°
2
1%
20:00
17°
1023.2 hPa 29.3 mm 14.9°
1
1%
23:00
14°
1024.7 hPa 29.3 mm 13.0°
1
1%
 05:58     20:24    Daglengte: 14:26 Woensdag 11 Aug
02:00
13°
1024.6 hPa 29.3 mm 12.2°
2
1%
05:00
13°
1023.8 hPa 29.3 mm 11.7°
2
0%
08:00
17°
1023.3 hPa 29.3 mm 12.8°
1
0%
11:00
24°
1022.0 hPa 29.3 mm 14.1°
1
0%
14:00
26°
1020.9 hPa 29.3 mm 14.5°
2
0%
17:00
26°
1021.1 hPa 29.3 mm 15.9°
2
0%
20:00
19°
1022.9 hPa 29.3 mm 17.9°
1
0%
23:00
16°
1024.6 hPa 29.3 mm 15.4°
1
0%
 05:59     20:22    Daglengte: 14:23 Donderdag 12 Aug
02:00
16°
1025.2 hPa 29.3 mm 14.4°
2
0%
05:00
15°
1025.2 hPa 29.3 mm 13.4°
2
1%
08:00
18°
1025.0 hPa 29.3 mm 15.3°
1
1%
11:00
25°
1024.0 hPa   15.0°
1
1%
14:00
27°
1023.0 hPa 58.6 mm 14.4°
2
1%
20:00
20°
1024.0 hPa 59.4 mm 17.7°
1
1%
 06:00     20:21    Daglengte: 14:21 Vrijdag 13 Aug
02:00
16°
1025.3 hPa 62.6 mm 14.7°
2
0%
08:00
19°
1024.3 hPa 63.0 mm 16.7°
1
1%
14:00
27°
1021.5 hPa 66.1 mm 18.3°
1
0%
20:00
20°
1020.3 hPa 68.4 mm 17.9°
1
1%
 06:02     20:19    Daglengte: 14:17 Zaterdag 14 Aug
02:00
17°
1019.8 hPa 70.3 mm 15.0°
2
0%
08:00
19°
1017.6 hPa 70.7 mm 16.7°
1
0%
14:00
29°
1013.4 hPa 71.6 mm 18.3°
2
0%
20:00
20°
1013.7 hPa 79.6 mm 17.8°
1
1%
 06:03     20:17    Daglengte: 14:14 Zondag 15 Aug
02:00
17°
1015.2 hPa 98.3 mm 17.0°
2
1%
08:00
17°
1016.4 hPa 1.2 mm 15.3°
1
57%
14:00
23°
1014.5 hPa 2.0 mm 16.0°
2
56%
20:00
18°
1014.9 hPa 2.7 mm 15.6°
0
60%
 06:04     20:16    Daglengte: 14:12 Maandag 16 Aug
02:00
15°
1016.3 hPa 1.9 mm 13.7°
1
55%
08:00
16°
1016.3 hPa 0.2 mm 14.6°
1
55%
14:00
22°
1015.4 hPa 0.9 mm 15.4°
2
58%
20:00
18°
1016.4 hPa 1.4 mm 15.5°
1
53%
 06:06     20:14    Daglengte: 14:08 Dinsdag 17 Aug
02:00
15°
1018.3 hPa 0.7 mm 13.8°
1
58%
08:00
16°
1018.6 hPa 0.4 mm 14.7°
1
65%
14:00
22°
1017.6 hPa 0.8 mm 15.7°
1
61%
20:00
18°
1017.9 hPa 1.4 mm 15.6°
1
54%
 06:07     20:12    Daglengte: 14:05 Woensdag 18 Aug
02:00
15°
1019.2 hPa 1.8 mm 13.8°
1
61%
08:00
16°
1018.8 hPa 1.4 mm 14.2°
1
49%
14:00
23°
1017.1 hPa 1.5 mm 15.8°
1
49%
20:00
18°
1016.9 hPa 1.6 mm 15.5°
0
54%
 06:08     20:10    Daglengte: 14:02 Donderdag 19 Aug
02:00
15°
1018.0 hPa 0.6 mm 13.9°
1
57%
08:00
17°
1017.6 hPa 0.5 mm 14.5°
1
62%
14:00
22°
1015.9 hPa 1.2 mm 16.0°
1
57%
20:00
18°
1016.1 hPa 1.7 mm 15.4°
1
58%
 06:10     20:08    Daglengte: 13:58 Vrijdag 20 Aug
02:00
15°
1017.4 hPa 0.8 mm 13.4°
1
57%
08:00
16°
1016.9 hPa 0.8 mm 14.4°
1
57%
  CAPE Lifted Index Hail Supercell Tornado SRH 3km CL BTM PRES CL TOP PRES Swiss DWD icon SMHI TS
 05:50     20:34    Daglengte: 14:44 Vandaag
13:00 132 J/kg 1.4 K 0 % 0 % 0 % 0 m²/s² 0 0 1.82 61
14:00 184 J/kg 0.6 K 0 % 0 % 0 % 0 m²/s² 0 0 1.02 61
15:00 235 J/kg -0.1 K 0 % 0 % 0 % 0 m²/s² 0 0 0.59 61
16:00 334 J/kg -0.9 K 0 % 0 % 0 % 0 m²/s² 0 0 0.3 3
17:00 397 J/kg -1.4 K 0 % 0 % 0 % 0 m²/s² 0 0 0.1 3
18:00 341 J/kg -1.5 K 0 % 0 % 0 % 0 m²/s² 0 0 0.33 3
19:00 401 J/kg -2.0 K 0 % 0 % 0 % 0 m²/s² 0 0 -0.05 2
20:00 383 J/kg -1.9 K 0 % 0 % 0 % 0 m²/s² 0 0 -0.1 3
21:00 353 J/kg -1.9 K 0 % 0 % 0 % 0 m²/s² 0 0 0.11 3
22:00 257 J/kg -1.2 K 0 % 0 % 0 % 0 m²/s² 0 0 0.66 3
23:00 210 J/kg -1.0 K 0 % 0 % 0 % 0 m²/s² 0 0 0.92 3
 05:51     20:32    Daglengte: 14:41 Morgen
00:00 176 J/kg -1.1 K 0 % 0 % 0 % 0 m²/s² 0 0 0.64 2
01:00 38 J/kg -0.1 K 0 % 0 % 0 % 0 m²/s² 0 0 0.65 2
02:00 0 J/kg 0.1 K 0 % 0 % 0 % 0 m²/s² 0 0 1.84 3
03:00 0 J/kg 0.0 K 0 % 0 % 0 % 0 m²/s² 0 0 1.74 2
04:00 28 J/kg -0.6 K 0 % 0 % 0 % 0 m²/s² 0 0 0.54 2
05:00 27 J/kg -0.1 K 0 % 0 % 0 % 0 m²/s² 0 0 0.89 2
06:00 17 J/kg 0.3 K 0 % 0 % 0 % 0 m²/s² 0 0 1.14 2
07:00 54 J/kg 0.2 K 0 % 0 % 0 % 0 m²/s² 0 0 1.13 2
08:00 82 J/kg 0.2 K 0 % 0 % 0 % 0 m²/s² 0 0 1.49 3
09:00 198 J/kg -0.6 K 0 % 0 % 0 % 0 m²/s² 0 0 0.6 3
10:00 407 J/kg -1.5 K 0 % 0 % 0 % 0 m²/s² 0 0 0.06 3
11:00 478 J/kg -1.8 K 0 % 0 % 0 % 0 m²/s² 0 0 -0.39 3
12:00 432 J/kg -1.9 K 0 % 0 % 0 % 0 m²/s² 0 0 -0.25 61
13:00 418 J/kg -1.8 K 0 % 0 % 0 % 0 m²/s² 0 0 -0.9 61
14:00 363 J/kg -2.1 K 0 % 0 % 0 % 0 m²/s² 0 0 -0.57 61
15:00 188 J/kg -1.3 K 0 % 0 % 0 % 0 m²/s² 0 0 -1.12 2
16:00 356 J/kg -2.1 K 0 % 0 % 0 % 0 m²/s² 0 0 0.33 2
17:00 496 J/kg -2.5 K 0 % 0 % 0 % 0 m²/s² 0 0 -1.54 2
18:00 431 J/kg -2.0 K 0 % 0 % 0 % 0 m²/s² 0 0 0.58 3
19:00 355 J/kg -1.8 K 0 % 0 % 0 % 0 m²/s² 0 0 1.92 2
20:00 115 J/kg 0.1 K 0 % 0 % 0 % 0 m²/s² 0 0 4.21 2
21:00 0 J/kg 2.1 K 0 % 0 % 0 % 0 m²/s² 0 0 6.21 2
22:00 0 J/kg 2.8 K 0 % 0 % 0 % 0 m²/s² 0 0 6.91 3
23:00 0 J/kg 3.7 K 0 % 0 % 0 % 0 m²/s² 0 0 7.81 3
 05:52     20:31    Daglengte: 14:39 Zaterdag 07 Aug
00:00 0 J/kg 4.0 K 0 % 0 % 0 % 0 m²/s² 0 0 7.81 3
01:00 0 J/kg 4.2 K 0 % 0 % 0 % 0 m²/s² 0 0 8.22 3
02:00 0 J/kg 3.7 K 0 % 0 % 0 % 0 m²/s² 0 0 7.03 3
03:00 0 J/kg 4.0 K 0 % 0 % 0 % 0 m²/s² 0 0 6.46 2
04:00 0 J/kg 3.4 K 0 % 0 % 0 % 0 m²/s² 0 0 4.78 2
05:00 0 J/kg 2.3 K 0 % 0 % 0 % 0 m²/s² 0 0 3.74 2
06:00 0 J/kg 2.0 K 0 % 0 % 0 % 0 m²/s² 0 0 3.56 3
07:00 0 J/kg 2.1 K 0 % 0 % 0 % 0 m²/s² 0 0 3.42 3
08:00 0 J/kg 2.5 K 0 % 0 % 0 % 0 m²/s² 0 0 4.69 3
09:00 1 J/kg 1.8 K 0 % 0 % 0 % 0 m²/s² 0 0 3.78 3
10:00 15 J/kg 0.7 K 0 % 0 % 0 % 0 m²/s² 0 0 2.83 3
11:00 80 J/kg -0.4 K 0 % 0 % 0 % 0 m²/s² 0 0 1.94 1
12:00 179 J/kg -1.0 K 0 % 0 % 0 % 0 m²/s² 0 0 1.01 1
13:00 217 J/kg -1.3 K 0 % 0 % 0 % 0 m²/s² 0 0 0.32 2
14:00 397 J/kg -2.0 K 0 % 0 % 0 % 0 m²/s² 0 0 -0.32 2
15:00 359 J/kg -1.7 K 0 % 0 % 0 % 0 m²/s² 0 0 0.82 1
16:00 284 J/kg -1.4 K 0 % 0 % 0 % 0 m²/s² 0 0 1.51 3
17:00 249 J/kg -1.5 K 0 % 0 % 0 % 0 m²/s² 0 0 1.41 2
18:00 155 J/kg -1.3 K 0 % 0 % 0 % 0 m²/s² 0 0 1.16 3
19:00 53 J/kg -0.8 K 0 % 0 % 0 % 0 m²/s² 0 0 1.18 1
20:00 0 J/kg 0.1 K 0 % 0 % 0 % 0 m²/s² 0 0 1.69 1
21:00 16 J/kg 0.1 K 0 % 0 % 0 % 0 m²/s² 0 0 1.24 3
22:00 7 J/kg 0.7 K 0 % 0 % 0 % 0 m²/s² 0 0 2.11 3
23:00 5 J/kg 0.1 K 0 % 0 % 0 % 0 m²/s² 0 0 1.18 3
 05:54     20:29    Daglengte: 14:35 Zondag 08 Aug
00:00 4 J/kg -0.7 K 0 % 0 % 0 % 0 m²/s² 0 0 0.26 3
01:00 5 J/kg 0.5 K 0 % 0 % 0 % 0 m²/s² 0 0 0.62 3
02:00 4 J/kg 1.6 K 0 % 0 % 0 % 0 m²/s² 0 0 1.63 61
03:00 1 J/kg 2.5 K 0 % 0 % 0 % 0 m²/s² 0 0 2.71 61
04:00 3 J/kg 2.0 K 0 % 0 % 0 % 0 m²/s² 0 0 2.87 61
05:00 7 J/kg 1.9 K 0 % 0 % 0 % 0 m²/s² 0 0 3.28 3
06:00 1 J/kg 1.9 K 0 % 0 % 0 % 0 m²/s² 0 0 2.95 61
07:00 1 J/kg 2.2 K 0 % 0 % 0 % 0 m²/s² 0 0 2.77 61
08:00 6 J/kg 2.0 K 0 % 0 % 0 % 0 m²/s² 0 0 2.45 61
09:00 0 J/kg 0.0 K 0 % 0 % 0 % 0 m²/s² 0 0 13.83 3
Temp Baro Wind Neerslag
  EWN Forecast EWN WRFDA DWD ICON FMI HIRLAM MET Norway GFS
 05:50     20:34    Daglengte: 14:44 Vandaag
14:00 14.4° 1010.7 hPa 1.7 m/s 17.2 mm 17.2° 1008.6 hPa 5.0 m/s 54.1 mm 13.9° 1010.8 hPa 1.0 m/s 2.1 mm 14.5° 1010.8 hPa 1.5 m/s 0.0 mm 14.7° 1011.4 hPa 1.1 m/s
17:00 16.7° 1009.6 hPa 1.4 m/s 5.6 mm 18.5° 1007.8 hPa 4.8 m/s 82.9 mm 15.2° 1009.8 hPa 1.1 m/s 0.2 mm 18.3° 1008.8 hPa 0.8 m/s 0.0 mm 18.9° 1009.7 hPa 1.3 m/s
20:00 15.3° 1009.9 hPa 1.2 m/s 0.0 mm 17.3° 1007.8 hPa 2.8 m/s 83.9 mm 14.2° 1010.2 hPa 0.7 m/s 0.0 mm 17.8° 1008.7 hPa 1.2 m/s 0.0 mm 15.6° 1009.9 hPa 0.8 m/s
23:00 12.8° 1010.8 hPa 0.9 m/s 0.0 mm 15.9° 1008.3 hPa 3.1 m/s 84.3 mm 12.9° 1011.2 hPa 0.8 m/s 0.0 mm 12.5° 1010.4 hPa 1.0 m/s 0.0 mm 14.0° 1011.2 hPa 1.9 m/s
 05:51     20:32    Daglengte: 14:41 Morgen
02:00 13.2° 1010.1 hPa 1.0 m/s 0.0 mm 14.1° 1007.7 hPa 3.8 m/s 91.2 mm 12.8° 1010.3 hPa 0.3 m/s 0.0 mm 16.1° 1009.6 hPa 3.1 m/s 0.0 mm 13.4° 1011.1 hPa 1.7 m/s
05:00 13.0° 1009.7 hPa 1.1 m/s 0.0 mm 14.9° 1006.9 hPa 4.6 m/s 95.0 mm 12.6° 1010.0 hPa 0.6 m/s 0.0 mm 15.5° 1009.7 hPa 2.1 m/s 0.0 mm 12.5° 1011.3 hPa 1.8 m/s
08:00 14.1° 1010.1 hPa 0.9 m/s 0.0 mm 16.0° 1007.9 hPa 3.9 m/s 95.6 mm 13.6° 1010.6 hPa 0.5 m/s 0.0 mm 16.4° 1009.9 hPa 1.6 m/s 0.0 mm 15.6° 1011.0 hPa 1.4 m/s
11:00 17.1° 1010.2 hPa 1.1 m/s 0.0 mm 19.6° 1007.9 hPa 3.8 m/s 96.5 mm 16.1° 1010.7 hPa 0.5 m/s 0.0 mm 21.8° 1008.6 hPa 2.8 m/s 0.0 mm 17.6° 1011.6 hPa 1.6 m/s
14:00 17.5° 1010.7 hPa 1.9 m/s 6.9 mm 22.4° 1007.0 hPa 3.9 m/s 96.6 mm 15.9° 1011.4 hPa 0.2 m/s 1.1 mm 18.3° 1009.6 hPa 3.5 m/s 0.0 mm 21.7° 1010.7 hPa 1.7 m/s
17:00 18.6° 1010.4 hPa 2.0 m/s 0.0 mm 21.4° 1008.1 hPa 4.3 m/s 99.8 mm 17.4° 1010.6 hPa 1.6 m/s 0.1 mm 18.4° 1010.5 hPa 2.4 m/s 0.0 mm 22.5° 1009.9 hPa 2.1 m/s
20:00 16.6° 1011.1 hPa 1.2 m/s 0.0 mm 18.6° 1008.0 hPa 2.5 m/s 100.3 mm 16.2° 1011.2 hPa 1.0 m/s 0.0 mm 17.2° 1011.5 hPa 1.0 m/s 0.0 mm 17.2° 1011.3 hPa 1.1 m/s
23:00 13.5° 1012.6 hPa 0.8 m/s 0.0 mm 15.2° 1009.7 hPa 3.5 m/s 100.3 mm 13.2° 1012.6 hPa 0.8 m/s 0.0 mm 14.5° 1013.9 hPa 0.5 m/s 0.0 mm 14.8° 1012.8 hPa 1.1 m/s
 05:52     20:31    Daglengte: 14:39 Zaterdag 07 Aug
02:00 12.3° 1012.5 hPa 0.9 m/s 0.0 mm 14.3° 1010.0 hPa 3.4 m/s 100.3 mm 11.8° 1012.2 hPa 0.6 m/s 0.0 mm 14.5° 1013.8 hPa 0.6 m/s 0.0 mm 14.0° 1013.0 hPa 1.7 m/s
05:00 10.9° 1011.5 hPa 1.1 m/s 0.0 mm 14.0° 1009.1 hPa 3.2 m/s 100.3 mm 10.6° 1011.8 hPa 1.0 m/s 0.0 mm 13.2° 1012.4 hPa 1.9 m/s
08:00 14.5° 1011.0 hPa 0.8 m/s 0.0 mm 19.5° 1008.4 hPa 1.3 m/s 100.3 mm 14.2° 1011.4 hPa 0.7 m/s 0.0 mm 17.1° 1011.2 hPa 1.6 m/s
11:00 21.2° 1009.0 hPa 1.0 m/s 0.0 mm 24.9° 1007.3 hPa 1.6 m/s 100.3 mm 20.2° 1009.1 hPa 1.1 m/s 0.0 mm 24.8° 1008.6 hPa 1.1 m/s
14:00 25.5° 1006.2 hPa 2.2 m/s 11.3 mm 27.8° 1004.6 hPa 4.6 m/s 100.3 mm 24.6° 1006.3 hPa 2.1 m/s 0.0 mm 28.2° 1005.4 hPa 1.9 m/s
17:00 25.9° 1003.6 hPa 2.6 m/s 35.1 mm 27.3° 1002.2 hPa 7.7 m/s 100.4 mm 26.1° 1003.6 hPa 2.1 m/s 0.0 mm 28.6° 1003.3 hPa 2.4 m/s
20:00 22.1° 1002.5 hPa 2.8 m/s 11.6 mm 23.5° 1000.6 hPa 7.7 m/s 100.4 mm 22.0° 1002.5 hPa 2.1 m/s 0.0 mm 22.1° 1004.5 hPa 2.6 m/s
23:00 18.2° 1004.7 hPa 2.3 m/s 0.0 mm 16.1° 1008.1 hPa 3.9 m/s 101.0 mm 18.2° 1003.5 hPa 1.8 m/s 0.0 mm 18.3° 1008.2 hPa 2.0 m/s
 05:54     20:29    Daglengte: 14:35 Zondag 08 Aug
02:00 14.9° 1011.6 hPa 2.6 m/s 19.3 mm 14.8° 1009.7 hPa 2.6 m/s 102.5 mm 14.6° 1011.9 hPa 2.6 m/s 0.5 mm 16.4° 1012.8 hPa 1.8 m/s
05:00 14.0° 1012.4 hPa 1.2 m/s 24.1 mm 15.4° 1008.9 hPa 1.9 m/s 107.1 mm 13.7° 1013.3 hPa 1.1 m/s 0.5 mm 15.7° 1013.1 hPa 0.5 m/s
08:00 13.9° 1014.2 hPa 0.5 m/s 36.3 mm 16.4° 1010.4 hPa 1.2 m/s 107.3 mm 13.3° 1015.2 hPa 0.3 m/s 0.9 mm 15.6° 1015.0 hPa 1.1 m/s
11:00 15.0° 1015.8 hPa 0.1 m/s 0.0 mm 14.8° 1015.9 hPa 0.0 m/s 0.0 mm 16.5° 1015.4 hPa 0.9 m/s 22.9 mm
14:00 17.8° 1015.1 hPa 1.2 m/s 0.0 mm 17.8° 1015.1 hPa 1.3 m/s 0.0 mm 17.4° 1015.3 hPa 1.2 m/s 22.9 mm
17:00 17.3° 1016.4 hPa 1.7 m/s 23.1 mm 17.3° 1016.4 hPa 1.7 m/s 23.1 mm
20:00 13.6° 1021.8 hPa 2.2 m/s 26.0 mm 13.6° 1021.8 hPa 2.2 m/s 26.0 mm
23:00 12.2° 1023.3 hPa 2.1 m/s 28.3 mm 12.2° 1023.3 hPa 2.1 m/s 28.3 mm
 05:55     20:27    Daglengte: 14:32 Maandag 09 Aug
02:00 10.4° 1023.3 hPa 2.0 m/s 28.3 mm 10.4° 1023.3 hPa 2.0 m/s 28.3 mm
05:00 10.1° 1023.1 hPa 2.0 m/s 28.3 mm 10.1° 1023.1 hPa 2.0 m/s 28.3 mm
08:00 14.0° 1022.2 hPa 1.1 m/s 28.3 mm 14.0° 1022.2 hPa 1.1 m/s 28.3 mm
11:00 17.9° 1022.2 hPa 1.0 m/s 28.3 mm 17.9° 1022.2 hPa 1.0 m/s 28.3 mm
14:00 20.5° 1021.6 hPa 1.9 m/s 28.3 mm 20.5° 1021.6 hPa 2.0 m/s 28.3 mm
17:00 20.3° 1021.8 hPa 1.7 m/s 28.3 mm 20.3° 1021.8 hPa 1.7 m/s 28.3 mm
20:00 15.3° 1024.3 hPa 1.1 m/s 29.2 mm 15.3° 1024.3 hPa 1.1 m/s 29.2 mm
23:00 13.3° 1025.5 hPa 1.6 m/s 29.3 mm 13.3° 1025.5 hPa 1.6 m/s 29.3 mm
 05:56     20:26    Daglengte: 14:30 Dinsdag 10 Aug
02:00 11.5° 1026.4 hPa 2.0 m/s 29.3 mm 11.5° 1026.4 hPa 2.0 m/s 29.3 mm
05:00 11.5° 1026.0 hPa 2.1 m/s 29.3 mm 11.5° 1026.0 hPa 2.1 m/s 29.3 mm
08:00 15.1° 1025.5 hPa 1.3 m/s 29.3 mm 15.1° 1025.5 hPa 1.3 m/s 29.3 mm
11:00 21.8° 1024.2 hPa 1.2 m/s 29.3 mm 21.8° 1024.2 hPa 1.2 m/s 29.3 mm
14:00 23.7° 1022.6 hPa 2.2 m/s 29.3 mm 23.7° 1022.6 hPa 2.2 m/s 29.3 mm
17:00 23.0° 1021.9 hPa 2.4 m/s 29.3 mm 23.0° 1021.9 hPa 2.4 m/s 29.3 mm
20:00 16.9° 1023.2 hPa 1.0 m/s 29.3 mm 16.9° 1023.2 hPa 1.0 m/s 29.3 mm
23:00 14.2° 1024.7 hPa 1.5 m/s 29.3 mm 14.2° 1024.7 hPa 1.5 m/s 29.3 mm
 05:58     20:24    Daglengte: 14:26 Woensdag 11 Aug
02:00 13.3° 1024.6 hPa 1.7 m/s 29.3 mm 13.3° 1024.6 hPa 1.7 m/s 29.3 mm
05:00 12.8° 1023.8 hPa 1.8 m/s 29.3 mm 12.8° 1023.8 hPa 1.8 m/s 29.3 mm
08:00 17.3° 1023.3 hPa 1.0 m/s 29.3 mm 17.3° 1023.3 hPa 1.0 m/s 29.3 mm
11:00 23.6° 1022.0 hPa 1.3 m/s 29.3 mm 23.6° 1022.0 hPa 1.3 m/s 29.3 mm
14:00 26.0° 1020.9 hPa 2.2 m/s 29.3 mm 26.0° 1020.9 hPa 2.2 m/s 29.3 mm
17:00 25.5° 1021.1 hPa 2.3 m/s 29.3 mm 25.5° 1021.1 hPa 2.3 m/s 29.3 mm
20:00 19.1° 1022.9 hPa 0.8 m/s 29.3 mm 19.1° 1022.9 hPa 0.8 m/s 29.3 mm
23:00 16.3° 1024.6 hPa 1.5 m/s 29.3 mm 16.3° 1024.6 hPa 1.5 m/s 29.3 mm
 05:59     20:22    Daglengte: 14:23 Donderdag 12 Aug
02:00 15.6° 1025.2 hPa 1.7 m/s 29.3 mm 15.6° 1025.2 hPa 1.7 m/s 29.3 mm
05:00 14.6° 1025.2 hPa 1.8 m/s 29.3 mm 14.6° 1025.2 hPa 1.8 m/s 29.3 mm
08:00 18.4° 1025.0 hPa 1.2 m/s 29.3 mm 18.4° 1025.0 hPa 1.2 m/s 29.3 mm
11:00 24.9° 1024.0 hPa 1.2 m/s 29.3 mm 24.9° 1024.0 hPa 1.2 m/s 29.3 mm
14:00 26.7° 1023.0 hPa 1.9 m/s 29.3 mm 26.7° 1023.0 hPa 1.9 m/s 29.3 mm
20:00 19.7° 1024.0 hPa 0.7 m/s 30.0 mm 19.7° 1024.0 hPa 0.7 m/s 30.0 mm
 06:00     20:21    Daglengte: 14:21 Vrijdag 13 Aug
02:00 16.0° 1025.3 hPa 1.8 m/s 31.4 mm 16.0° 1025.3 hPa 1.8 m/s 31.4 mm
08:00 18.9° 1024.3 hPa 1.0 m/s 31.5 mm 18.9° 1024.3 hPa 1.0 m/s 31.5 mm
14:00 26.6° 1021.5 hPa 1.5 m/s 33.5 mm 26.6° 1021.5 hPa 1.5 m/s 33.5 mm
20:00 19.8° 1020.3 hPa 0.6 m/s 34.8 mm 19.8° 1020.3 hPa 0.6 m/s 34.8 mm
 06:02     20:19    Daglengte: 14:17 Zaterdag 14 Aug
02:00 16.5° 1019.8 hPa 1.9 m/s 35.2 mm 16.5° 1019.8 hPa 1.9 m/s 35.2 mm
08:00 19.5° 1017.6 hPa 1.1 m/s 35.3 mm 19.5° 1017.6 hPa 1.1 m/s 35.3 mm
14:00 28.7° 1013.4 hPa 2.2 m/s 36.0 mm 28.7° 1013.4 hPa 2.2 m/s 36.0 mm
20:00 20.4° 1013.7 hPa 1.4 m/s 42.5 mm 20.4° 1013.7 hPa 1.4 m/s 42.5 mm
 06:03     20:17    Daglengte: 14:14 Zondag 15 Aug
02:00 17.5° 1015.2 hPa 2.1 m/s 51.1 mm 17.5° 1015.2 hPa 2.1 m/s 51.1 mm
08:00 17.1° 1016.4 hPa 0.8 m/s 1.2 mm
14:00 22.8° 1014.5 hPa 1.5 m/s 2.0 mm
20:00 18.0° 1014.9 hPa 0.3 m/s 2.7 mm
 06:04     20:16    Daglengte: 14:12 Maandag 16 Aug
02:00 15.2° 1016.3 hPa 1.1 m/s 1.9 mm
08:00 16.4° 1016.3 hPa 0.6 m/s 0.2 mm
14:00 22.5° 1015.4 hPa 1.7 m/s 0.9 mm
20:00 17.7° 1016.4 hPa 0.7 m/s 1.4 mm
 06:06     20:14    Daglengte: 14:08 Dinsdag 17 Aug
02:00 15.1° 1018.3 hPa 1.0 m/s 0.7 mm
08:00 16.3° 1018.6 hPa 0.8 m/s 0.4 mm
14:00 22.5° 1017.6 hPa 1.4 m/s 0.8 mm
20:00 17.9° 1017.9 hPa 0.6 m/s 1.4 mm
 06:07     20:12    Daglengte: 14:05 Woensdag 18 Aug
02:00 15.1° 1019.2 hPa 1.1 m/s 1.8 mm
08:00 16.4° 1018.8 hPa 0.8 m/s 1.4 mm
14:00 23.1° 1017.1 hPa 0.9 m/s 1.5 mm
20:00 18.1° 1016.9 hPa 0.4 m/s 1.6 mm
 06:08     20:10    Daglengte: 14:02 Donderdag 19 Aug
02:00 15.4° 1018.0 hPa 1.3 m/s 0.6 mm
08:00 16.5° 1017.6 hPa 0.9 m/s 0.5 mm
14:00 22.3° 1015.9 hPa 0.9 m/s 1.2 mm
20:00 17.6° 1016.1 hPa 0.5 m/s 1.7 mm
 06:10     20:08    Daglengte: 13:58 Vrijdag 20 Aug
02:00 14.9° 1017.4 hPa 1.4 m/s 0.8 mm
08:00 16.3° 1016.9 hPa 0.9 m/s 0.8 mm
FMI Hirlam - 7.5 km EWN WRFDA - 12 km DWD ICON - 7 km GFS - 25 km Basiskaart






























































Updatetijd (Europe/Brussels) Resolutie Lengte Stap
FMI Hirlam 07:00, 13:00, 19:00, 01:00 7.5 km 49h 1h
EWN WRFDA 04:15, 10:15, 16:15, 22:15 12 km 73h 1h
DWD ICON 11:45, 17:45, 23:45, 05:45 7 km 75h 1h
GFS 08:30, 14:30, 20:30, 02:30 25 km 237h 3h
30+ mm
25-30 mm
20-25 mm
15-20 mm
10-15 mm
6-10 mm
4-6 mm
2-4 mm
1-2 mm
0.5-1 mm
0.2-0.5 mm
0.1-0.2 mm
30+ mm
25-30 mm
20-25 mm
15-20 mm
10-15 mm
6-10 mm
4-6 mm
2-4 mm
1-2 mm
0.5-1 mm
0.2-0.5 mm
0.1-0.2 mm
Sneeuwval
Natte sneeuw
Hagel
Vorst
30+ mm
25-30 mm
20-25 mm
15-20 mm
10-15 mm
6-10 mm
4-6 mm
2-4 mm
1-2 mm
0.5-1 mm
0.2-0.5 mm
0.1-0.2 mm
Sneeuwval
Natte sneeuw
Hagel
Vorst
Onweer
50 mm
40 mm
30 mm
26 mm
22 mm
18 mm
14 mm
10 mm
9 mm
8 mm
7 mm
6 mm
5 mm
4.5 mm
4 mm
3.5 mm
3 mm
2.5 mm
2 mm
1.5 mm
1 mm
0.8 mm
0.6 mm
0.4 mm
0.2 mm
0.05 mm
35°
30°
25°
20°
15°
10°
-5°
-10°
-15°
-20°
-25°
-30°
-35°
33> m/s
29 m/s
25 m/s
21 m/s
17 m/s
14 m/s
11 m/s
8 m/s
5 m/s
3 m/s
0 m/s
2600 J/kg
2400 J/kg
2200 J/kg
2000 J/kg
1800 J/kg
1600 J/kg
1400 J/kg
1200 J/kg
1000 J/kg
800 J/kg
600 J/kg
400 J/kg
200 J/kg
<
70 dBZ
65 dBZ
60 dBZ
55 dBZ
50 dBZ
45 dBZ